カタリナ彗星

346P/Catalina (1998)

English version
Home page
Updated on December 25, 2016

---------------------------------------------------------------------

・ プロフィール

・ 軌道要素

Epoch 1998 Mar. 8.0 TT = JDT 2450880.5
T 1998 Feb. 19.98577 TT                                 MPCW
q   2.2177829            (2000.0)            P               Q
n   0.10424067     Peri.  335.76457     +0.17018142     -0.91402528
a   4.4714110      Node   102.70978     +0.95448743     +0.06001633
e   0.5040083      Incl.   22.17787     +0.24493270     +0.40119301
P   9.46
From 291 observations 1998 Jan. 29-2016 Oct. 7, mean residual 0".6.

・ 光度変化

        m1 = 14.0 + 5 logΔ + 10.0 log r

---------------------------------------------------------------------

軌道要素はM.P.E.C. 2016-U66に掲載されたものです。
光度グラフはComet for Windowsで作成したものです。

---------------------------------------------------------------------

Copyright(C) Seiichi Yoshida (comet@aerith.net). All rights reserved.